Location: Asheville, NC
(35.6000°N, 82.5500°W)
Time: 06:49:05
(UTC-05:00)

LilacSat-2 - Pass Details

Date: 12 January 2018
Orbit: 515 x 537 km, 97.5° (Epoch: 17 January)

Event Time Altitude Azimuth Distance (km) Brightness Sun altitude
Rises 18:20:44 0° 188° (S) 2,668 ? -8.9°
Reaches altitude 10° 18:23:00 10° 198° (SSW) 1,783 ? -9.3°
Maximum altitude 18:26:28 32° 262° (W) 939 ? -10.0°
Drops below altitude 10° 18:29:58 10° 327° (NNW) 1,792 ? -10.6°
Sets 18:32:15 0° 337° (NNW) 2,685 ? -11.1°
